Location: Mount Cross
(36.6390°N, 79.4878°W)
Time: 02:01:59
(UTC+00:00)

Vanguard 2 Rocket - Pass Details

Date: 21 March 2023
Orbit: 554 x 3314 km, 32.9° (Epoch: 08 June)

Event Time Altitude Azimuth Distance (km) Brightness Sun altitude
Exits shadow 10:11:36 15° 246° (WSW) 5,826 10.4 -14.5°
Maximum altitude 10:17:21 17° 227° (SW) 5,623 10.4 -13.4°
Drops below altitude 10° 10:27:45 10° 193° (SSW) 5,932 10.8 -11.4°
Sets 10:34:33 0° 176° (S) 6,558 11.2 -10.0°
